This is the latest recevied weather packets stored in our database for station/object KQ4WWD. If no packets are shown the sender has not sent any weather packets the latest 10 day(s).
| Time | Temp. | Humidity | Pressure | Rain* | Wind** | Luminosity | Snow |
|---|---|---|---|---|---|---|---|
| 1788373499 | 30° C | 84% | 1015 hPa | 0 mm | - | 210 W/m² | - |
| 1788373194 | 30° C | 86% | 1015.1 hPa | 0 mm | - | 296 W/m² | - |
| 1788372890 | 29.44° C | 88% | 1015.2 hPa | 0 mm | - | 367 W/m² | - |
| 1788372584 | 28.33° C | 90% | 1014.8 hPa | 0 mm | - | 380 W/m² | - |
| 1788372279 | 28.89° C | 91% | 1015.2 hPa | 0 mm | - | 590 W/m² | - |
| 1788371975 | 27.78° C | 92% | 1015.1 hPa | 0 mm | - | 427 W/m² | - |
| 1788371670 | 27.78° C | 93% | 1015.4 hPa | 1.27 mm | - | 407 W/m² | - |
| 1788371366 | 27.78° C | 92% | 1015.3 hPa | 3.05 mm | - | 363 W/m² | - |
| 1788371062 | 27.78° C | 92% | 1015.5 hPa | 6.1 mm | - | 202 W/m² | - |
| 1788370758 | 28.89° C | 90% | 1015.3 hPa | 4.32 mm | - | 174 W/m² | - |
| 1788370457 | 31.11° C | 86% | 1015.5 hPa | 0 mm | - | 297 W/m² | - |
| 1788370152 | 31.67° C | 79% | 1015.3 hPa | 0 mm | - | 898 W/m² | - |
| 1788369851 | 31.11° C | 81% | 1015.4 hPa | 0 mm | - | 316 W/m² | - |
| 1788369547 | 31.67° C | 81% | 1015.3 hPa | 0 mm | - | 695 W/m² | - |
| 1788369242 | 32.22° C | 78% | 1015.3 hPa | 0 mm | - | 292 W/m² | - |
| 1788368938 | 32.78° C | 76% | 1015.2 hPa | 0 mm | - | 889 W/m² | - |
| 1788368639 | 32.22° C | 75% | 1015.5 hPa | 0 mm | - | 767 W/m² | - |
| 1788368334 | 31.67° C | 78% | 1015.6 hPa | 0 mm | - | 774 W/m² | - |
| 1788368033 | 31.67° C | 77% | 1015.7 hPa | 0 mm | - | 662 W/m² | - |
| 1788367728 | 31.67° C | 78% | 1015.7 hPa | 0 mm | - | 421 W/m² | - |
| 1788367423 | 31.67° C | 78% | 1015.6 hPa | 0 mm | - | 897 W/m² | - |
| 1788367122 | 30.56° C | 79% | 1015.4 hPa | 0 mm | - | 548 W/m² | - |
| 1788366817 | 31.11° C | 78% | 1015.9 hPa | 0 mm | - | 422 W/m² | - |
| 1788366515 | 30.56° C | 79% | 1015.8 hPa | 0 mm | - | 386 W/m² | - |
| 1788366211 | 31.11° C | 80% | 1015.9 hPa | 0 mm | - | 779 W/m² | - |
* Rain latest hour (hover to see other rain measurements)
** Current wind speed in m/s (hover to see current wind gust speed)